Regional Weather Roundup
Issued by NWS

Home | Current Version | Previous Version | Graphics & Text | Print | Product List | Glossary On
Versions: 1 2 3 4 5 6 7 8 9 10 11 12 13 14 15 16 17 18 19 20 21 22 23 24 25 26 27 28 29 30 31 32 33 34 35 36 37 38 39 40 41 42 43 44 45 46 47 48 49 50
261
ASUS45 KCYS 301410
RWRWY

WYOMING REGIONAL WEATHER ROUNDUP
NATIONAL WEATHER SERVICE CHEYENNE WY
800 AM MDT SUN APR 30 2017

NOTE:  "FAIR" INDICATES FEW OR NO CLOUDS BELOW 12,000 FEET
WITH NO SIGNIFICANT WEATHER AND/OR OBSTRUCTIONS TO VISIBILITY.

WYZ001-301500-
YELLOWSTONE NATIONAL PARK

CITY           SKY/WX    TMP DP  RH WIND       PRES   REMARKS
LK YELLOWSTONE   N/A     24  21  88 CALM      30.15R
W YELLOWSTONE  NOT AVBL

$$
WYZ002>013-054>058-071-098>099-301500-
NORTHERN WYOMING

CITY           SKY/WX    TMP DP  RH WIND       PRES   REMARKS
JACKSON        SUNNY     30  30 100 CALM      30.16R
CODY           FAIR      38  30  73 CALM      30.06S
GREYBULL       FAIR      38  26  62 SE5       30.08S WCI  34
WORLAND        FAIR      38  28  67 S7        30.07F WCI  33
SHERIDAN       FAIR      33  26  75 CALM      30.02S
BUFFALO        FAIR      38  19  46 W6        30.02F WCI  33
GILLETTE       FAIR      33  25  72 S8        30.03F WCI  26
HULETT         FAIR      41  21  45 S3        30.06F
NEWCASTLE      FAIR      37  27  65 N5        30.07F WCI  34

$$
WYZ014>020-022>026-101>103-301500-
CENTRAL WYOMING

CITY           SKY/WX    TMP DP  RH WIND       PRES   REMARKS
BIG PINEY      FAIR      26  22  84 CALM      30.17S
PINEDALE       FAIR      25  21  86 NW3       30.17S
DUBOIS         FAIR      32  19  59 NW13      30.08F WCI  22
LANDER         FAIR      25  20  81 SE6       30.08F WCI  18
RIVERTON       FAIR      31  23  72 CALM      30.10F
CASPER         FAIR      35  23  61 SW14      30.07F WCI  26
DOUGLAS        FAIR      31  26  82 W3        30.07F

$$
WYZ021-027>030-104>119-301500-
SOUTHERN WYOMING

CITY           SKY/WX    TMP DP  RH WIND       PRES   REMARKS
EVANSTON       FAIR      29  22  75 SW9       30.19S WCI  20
KEMMERER         N/A     32  27  80 SW3       30.17F
FORT BRIDGER   FAIR      36  23  59 SW15      30.20S WCI  26
ROCK SPRINGS   FAIR      33  24  69 SW8       30.15F WCI  26
DIXON            N/A     26  19  74 E9        30.19S WCI  17
RAWLINS        FAIR      29  22  75 SW9       30.12F WCI  20
SARATOGA       FAIR      27  21  80 S8        30.14S WCI  18
LARAMIE        FAIR      22  17  81 CALM      30.07S
CHEYENNE       FAIR      34  17  50 N30G38    29.98F WCI  20
TORRINGTON     FAIR      35  24  64 NW14      30.01F WCI  26
PINE BLUFFS    FAIR      34  19  55 N17G24    29.98F WCI  23

$$




USA.gov is the U.S. government's official web portal to all federal, state and local government web resources and services.